ROT641X LROP-LRCL

Flight info

Callsign ROT641X
Flight time N/A
Altitude 28000
Route BUKEL DCT EDETA
Aircraft A320/M-SDE3FGHIRWY/LB1

Departure

Time 2026-05-04 11:43
Airport Bucharest Henri Coandă International Airport (LROP)

Arrival

Time N/A
Airport Avram Iancu Cluj International Airport (LRCL)
Time Latitude Longitude Altitude Speed Heading
2026-05-04 11:23 44.56877 26.08064 323 ft 0 kts 173°
2026-05-04 11:39 44.56876 26.08064 323 ft 0 kts 173°
2026-05-04 11:39 44.56845 26.08072 323 ft 9 kts 160°
2026-05-04 11:40 44.57077 26.08525 323 ft 11 kts 354°
2026-05-04 11:41 44.57160 26.08515 321 ft 18 kts 355°
2026-05-04 11:41 44.57332 26.08491 323 ft 27 kts 353°
2026-05-04 11:41 44.57484 26.08468 323 ft 14 kts 355°
2026-05-04 11:41 44.57553 26.08458 323 ft 2 kts 354°
2026-05-04 11:42 44.57574 26.08455 323 ft 7 kts 353°
2026-05-04 11:42 44.57651 26.08447 323 ft 11 kts 15°
2026-05-04 11:42 44.57673 26.08576 324 ft 34 kts 83°
2026-05-04 11:42 44.57727 26.09301 321 ft 111 kts 84°
2026-05-04 11:43 44.57825 26.10675 332 ft 167 kts 85°
2026-05-04 11:43 44.57935 26.12323 1010 ft 171 kts 84°
2026-05-04 11:43 44.58056 26.13979 1793 ft 171 kts 82°
2026-05-04 11:43 44.58206 26.15695 2378 ft 186 kts 83°
2026-05-04 11:44 44.58351 26.17600 2845 ft 209 kts 83°
2026-05-04 11:44 44.58513 26.19749 3344 ft 232 kts 81°
2026-05-04 11:44 44.58689 26.22094 3981 ft 252 kts 81°
2026-05-04 11:44 44.59077 26.24509 4898 ft 254 kts 61°
2026-05-04 11:45 44.60116 26.26444 5992 ft 248 kts 38°
2026-05-04 11:45 44.61625 26.27560 7095 ft 247 kts 15°
2026-05-04 11:45 44.63347 26.27632 8097 ft 255 kts 352°
2026-05-04 11:45 44.64986 26.26567 9105 ft 269 kts 328°
2026-05-04 11:46 44.66393 26.24790 10072 ft 275 kts 324°
2026-05-04 11:46 44.67837 26.22903 10612 ft 294 kts 324°
2026-05-04 11:46 44.69402 26.20865 10948 ft 318 kts 323°
2026-05-04 11:46 44.71051 26.18705 11562 ft 329 kts 323°
2026-05-04 11:47 44.72738 26.16488 12333 ft 336 kts 323°
2026-05-04 11:47 44.74469 26.14227 13107 ft 342 kts 324°
2026-05-04 11:47 44.76280 26.12019 13858 ft 347 kts 326°
2026-05-04 11:47 44.78160 26.09840 14542 ft 352 kts 327°
2026-05-04 11:48 44.80079 26.07668 15259 ft 356 kts 327°
2026-05-04 11:48 44.82039 26.05459 16000 ft 359 kts 326°
2026-05-04 11:48 44.83911 26.03331 16696 ft 363 kts 326°
2026-05-04 11:48 44.85853 26.01104 17403 ft 366 kts 325°
2026-05-04 11:49 44.87828 25.98822 18100 ft 371 kts 324°
2026-05-04 11:49 44.89835 25.96487 18716 ft 375 kts 324°
2026-05-04 11:49 44.91849 25.94132 19333 ft 378 kts 323°
2026-05-04 11:49 44.93881 25.91752 19943 ft 381 kts 323°
2026-05-04 11:50 44.95931 25.89354 20561 ft 385 kts 323°
2026-05-04 11:50 44.97999 25.86935 21176 ft 388 kts 323°
2026-05-04 11:50 44.99405 25.85290 21599 ft 390 kts 323°
2026-05-04 11:50 44.99494 25.85186 21626 ft 390 kts 323°